| time (UTC) | temp F | wind direction | speed knots | gust knots | rain 1hr in | rain 24hr in | rain mn in | humidity % | barometer mb |
| 20260831222620 | 83 | 319 | 0.0 | 4.3 | 0.00 | 0.16 | 0.00 | 30 | 986.0 |
| 20260831222518 | 82 | 241 | 0.0 | 1.7 | 0.00 | 0.16 | 0.00 | 31 | 986.0 |
| 20260831222513 | 82 | 248 | 0.0 | 1.7 | 0.00 | 0.16 | 0.00 | 31 | 985.9 |
| 20260831221013 | 83 | 118 | 0.0 | 6.1 | 0.00 | 0.16 | 0.00 | 29 | 986.0 |
| 20260831220514 | 84 | 134 | 0.9 | 6.1 | 0.00 | 0.16 | 0.00 | 29 | 986.0 |
| 20260831220015 | 84 | 130 | 0.0 | 3.5 | 0.00 | 0.17 | 0.00 | 29 | 986.0 |
| 20260831215512 | 85 | 195 | 0.0 | 2.6 | 0.00 | 0.18 | 0.00 | 28 | 986.0 |
| 20260831215022 | 86 | 252 | 0.0 | 2.6 | 0.00 | 0.19 | 0.00 | 30 | 986.0 |
| 20260831214512 | 86 | 236 | 0.0 | 1.7 | 0.00 | 0.20 | 0.00 | 29 | 986.1 |
| 20260831214016 | 85 | 254 | 0.0 | 2.6 | 0.00 | 0.21 | 0.00 | 29 | 986.1 |
| 20260831213511 | 83 | 199 | 0.9 | 4.3 | 0.00 | 0.21 | 0.00 | 29 | 986.3 |
| 20260831213011 | 83 | 197 | 0.9 | 5.2 | 0.00 | 0.21 | 0.00 | 29 | 986.4 |
| 20260831212512 | 83 | 191 | 0.0 | 5.2 | 0.00 | 0.21 | 0.00 | 29 | 986.4 |
| 20260831212011 | 82 | 49 | 0.0 | 2.6 | 0.00 | 0.21 | 0.00 | 30 | 986.5 |
| 20260831211510 | 82 | 125 | 0.0 | 2.6 | 0.00 | 0.21 | 0.00 | 31 | 986.7 |
| 20260831211010 | 83 | 124 | 0.0 | 0.9 | 0.00 | 0.21 | 0.00 | 29 | 986.6 |
| 20260831210510 | 83 | 124 | 0.0 | 3.5 | 0.00 | 0.21 | 0.00 | 30 | 986.6 |
| 20260831210009 | 84 | 166 | 0.0 | 3.5 | 0.00 | 0.21 | 0.00 | 28 | 986.6 |
| 20260831205509 | 84 | 129 | 0.0 | 1.7 | 0.00 | 0.21 | 0.00 | 29 | 986.6 |
| 20260831205009 | 83 | 130 | 0.0 | 1.7 | 0.00 | 0.21 | 0.00 | 30 | 986.7 |
| 20260831204508 | 82 | 129 | 0.9 | 5.2 | 0.00 | 0.21 | 0.00 | 31 | 986.9 |
| 20260831204013 | 82 | 183 | 0.0 | 4.3 | 0.00 | 0.21 | 0.00 | 31 | 987.0 |
| 20260831204009 | 81 | 135 | 0.9 | 5.2 | 0.00 | 0.21 | 0.00 | 31 | 986.9 |
| 20260831203014 | 82 | 150 | 0.0 | 1.7 | 0.00 | 0.21 | 0.00 | 31 | 987.0 |
| 20260831203010 | 82 | 139 | 0.0 | 1.7 | 0.00 | 0.21 | 0.00 | 31 | 987.0 |
| 20260831202013 | 82 | 120 | 0.0 | 2.6 | 0.00 | 0.21 | 0.00 | 31 | 987.2 |
| 20260831202009 | 82 | 150 | 0.0 | 1.7 | 0.00 | 0.21 | 0.00 | 31 | 987.0 |
| 20260831201009 | 82 | 281 | 0.0 | 2.6 | 0.00 | 0.21 | 0.00 | 30 | 987.2 |
| 20260831200510 | 82 | 143 | 0.0 | 2.6 | 0.00 | 0.21 | 0.00 | 33 | 987.2 |
| 20260831200009 | 81 | 194 | 0.0 | 2.6 | 0.00 | 0.21 | 0.00 | 32 | 987.3 |
| 20260831195509 | 81 | 129 | 0.0 | 1.7 | 0.00 | 0.21 | 0.00 | 31 | 987.3 |
| 20260831195014 | 81 | 306 | 0.0 | 3.5 | 0.00 | 0.21 | 0.00 | 31 | 987.4 |
| 20260831195009 | 81 | 309 | 0.0 | 1.7 | 0.00 | 0.21 | 0.00 | 33 | 987.4 |
| 20260831194615 | 81 | 160 | 0.9 | 4.3 | 0.00 | 0.21 | 0.00 | 33 | 987.7 |
| 20260831193507 | 81 | 168 | 0.9 | 4.3 | 0.00 | 0.21 | 0.00 | 33 | 987.7 |
| 20260831193005 | 82 | 213 | 0.0 | 1.7 | 0.00 | 0.21 | 0.00 | 33 | 987.7 |
| 20260831192505 | 81 | 200 | 0.0 | 0.9 | 0.00 | 0.21 | 0.00 | 34 | 987.7 |
| 20260831192009 | 79 | 150 | 0.9 | 3.5 | 0.00 | 0.21 | 0.00 | 35 | 987.9 |
| 20260831192005 | 80 | 134 | 0.9 | 3.5 | 0.00 | 0.21 | 0.00 | 35 | 987.7 |
| 20260831191005 | 80 | 136 | 0.0 | 2.6 | 0.00 | 0.21 | 0.00 | 35 | 987.9 |
| 20260831190510 | 80 | 207 | 0.0 | 1.7 | 0.00 | 0.21 | 0.00 | 30 | 988.0 |
| 20260831190505 | 80 | 115 | 0.0 | 2.6 | 0.00 | 0.21 | 0.00 | 34 | 987.9 |
| 20260831190005 | 79 | 123 | 0.0 | 2.6 | 0.00 | 0.21 | 0.00 | 34 | 987.9 |
| 20260831185005 | 80 | 134 | 0.0 | 1.7 | 0.00 | 0.21 | 0.00 | 33 | 988.2 |
| 20260831184505 | 80 | 146 | 0.0 | 3.5 | 0.00 | 0.21 | 0.00 | 34 | 988.2 |
| 20260831184005 | 80 | 138 | 0.0 | 3.5 | 0.00 | 0.21 | 0.00 | 33 | 988.2 |
| 20260831183502 | 80 | 357 | 0.0 | 0.9 | 0.00 | 0.21 | 0.00 | 33 | 988.2 |
| 20260831183002 | 79 | 264 | 0.0 | 1.7 | 0.00 | 0.21 | 0.00 | 33 | 988.3 |
| 20260831182501 | 79 | 319 | 0.0 | 1.7 | 0.00 | 0.21 | 0.00 | 34 | 988.3 |
| 20260831182001 | 79 | 352 | 0.0 | 1.7 | 0.00 | 0.21 | 0.00 | 33 | 988.3 |
| 20260831181505 | 79 | 259 | 0.0 | 0.9 | 0.00 | 0.21 | 0.00 | 36 | 988.4 |
| 20260831181501 | 79 | 319 | 0.0 | 1.7 | 0.00 | 0.21 | 0.00 | 35 | 988.4 |
| 20260831180501 | 78 | 5 | 0.0 | 2.6 | 0.00 | 0.21 | 0.00 | 33 | 988.5 |
| 20260831180000 | 78 | 342 | 0.0 | 2.6 | 0.00 | 0.21 | 0.00 | 36 | 988.5 |
| 20260831175501 | 77 | 165 | 0.0 | 1.7 | 0.00 | 0.21 | 0.00 | 35 | 988.6 |
| 20260831175001 | 77 | 25 | 0.0 | 4.3 | 0.00 | 0.21 | 0.00 | 37 | 988.5 |
| 20260831174505 | 77 | 134 | 0.0 | 3.5 | 0.00 | 0.21 | 0.00 | 36 | 988.5 |
| 20260831174501 | 77 | 342 | 0.0 | 4.3 | 0.00 | 0.21 | 0.00 | 35 | 988.5 |
| 20260831173505 | 78 | 354 | 0.0 | 2.6 | 0.00 | 0.21 | 0.00 | 35 | 988.6 |
| 20260831173501 | 78 | 14 | 0.0 | 1.7 | 0.00 | 0.21 | 0.00 | 35 | 988.5 |
| 20260831173107 | 78 | 164 | 0.0 | 2.6 | 0.00 | 0.21 | 0.00 | 35 | 988.6 |
| 20260831172000 | 78 | 147 | 0.0 | 0.9 | 0.00 | 0.21 | 0.00 | 36 | 988.5 |
| 20260831171500 | 78 | 255 | 0.0 | 0.9 | 0.00 | 0.21 | 0.00 | 37 | 988.5 |
| 20260831171001 | 78 | 295 | 0.0 | 0.9 | 0.00 | 0.21 | 0.00 | 36 | 988.6 |
| 20260831170501 | 78 | 229 | 0.0 | 0.9 | 0.00 | 0.21 | 0.00 | 37 | 988.6 |
| 20260831170002 | 78 | 229 | 0.0 | 0.9 | 0.00 | 0.21 | 0.00 | 37 | 988.6 |
| 20260831165501 | 77 | 180 | 0.0 | 2.6 | 0.00 | 0.21 | 0.00 | 36 | 988.6 |
| 20260831165000 | 77 | 220 | 0.0 | 2.6 | 0.00 | 0.21 | 0.00 | 36 | 988.6 |
| 20260831164501 | 77 | 303 | 0.0 | 1.7 | 0.00 | 0.21 | 0.00 | 37 | 988.6 |
| 20260831163958 | 77 | 135 | 0.0 | 1.7 | 0.00 | 0.21 | 0.00 | 37 | 988.6 |
| 20260831163459 | 76 | 170 | 0.0 | 1.7 | 0.00 | 0.21 | 0.00 | 36 | 988.6 |
| 20260831162959 | 76 | 150 | 0.0 | 3.5 | 0.00 | 0.21 | 0.00 | 40 | 988.5 |
| 20260831162458 | 75 | 319 | 0.9 | 3.5 | 0.00 | 0.21 | 0.00 | 40 | 988.5 |
| 20260831161958 | 74 | 342 | 0.9 | 3.5 | 0.00 | 0.21 | 0.00 | 38 | 988.5 |
| 20260831161456 | 74 | 347 | 0.9 | 2.6 | 0.00 | 0.21 | 0.00 | 37 | 988.5 |
| 20260831161007 | 75 | 324 | 0.0 | 4.3 | 0.00 | 0.21 | 0.00 | 39 | 988.4 |
| 20260831160957 | 74 | 349 | 0.9 | 4.3 | 0.00 | 0.21 | 0.00 | 38 | 988.4 |
| 20260831160000 | 74 | 265 | 0.0 | 1.7 | 0.00 | 0.21 | 0.00 | 41 | 988.4 |
| 20260831155956 | 74 | 326 | 0.0 | 0.9 | 0.00 | 0.21 | 0.00 | 42 | 988.4 |
| 20260831154957 | 74 | 352 | 0.0 | 2.6 | 0.00 | 0.21 | 0.00 | 41 | 988.3 |
| 20260831154456 | 74 | 307 | 0.0 | 2.6 | 0.00 | 0.21 | 0.00 | 41 | 988.3 |
| 20260831153956 | 74 | 229 | 0.0 | 0.9 | 0.00 | 0.21 | 0.00 | 40 | 988.3 |
| 20260831153456 | 74 | 254 | 0.0 | 0.0 | 0.00 | 0.21 | 0.00 | 40 | 988.2 |
| 20260831152956 | 74 | 272 | 0.0 | 0.0 | 0.00 | 0.21 | 0.00 | 42 | 988.2 |
| 20260831152500 | 73 | 193 | 0.0 | 0.9 | 0.00 | 0.21 | 0.00 | 42 | 988.3 |
| 20260831152456 | 73 | 192 | 0.0 | 0.9 | 0.00 | 0.21 | 0.00 | 40 | 988.2 |
| 20260831151454 | 72 | 240 | 0.0 | 0.9 | 0.00 | 0.21 | 0.00 | 42 | 988.2 |
| 20260831150954 | 72 | 255 | 0.0 | 2.6 | 0.00 | 0.21 | 0.00 | 45 | 988.2 |
| 20260831150453 | 72 | 281 | 0.0 | 2.6 | 0.00 | 0.21 | 0.00 | 43 | 988.2 |
| 20260831145952 | 71 | 319 | 0.0 | 0.0 | 0.00 | 0.21 | 0.00 | 41 | 988.0 |
| 20260831145451 | 71 | 300 | 0.0 | 0.0 | 0.00 | 0.21 | 0.00 | 43 | 988.0 |
| 20260831144955 | 70 | 209 | 0.0 | 0.9 | 0.00 | 0.21 | 0.00 | 44 | 988.0 |
| 20260831144453 | 69 | 208 | 0.0 | 0.9 | 0.00 | 0.21 | 0.00 | 46 | 988.0 |
| 20260831143958 | 67 | 354 | 0.0 | 1.7 | 0.00 | 0.21 | 0.00 | 53 | 988.0 |
| 20260831143953 | 67 | 355 | 0.0 | 0.0 | 0.00 | 0.21 | 0.00 | 51 | 988.0 |
| 20260831143446 | 67 | 354 | 0.0 | 0.0 | 0.00 | 0.21 | 0.00 | 53 | 988.0 |
| 20260831143052 | 67 | 354 | 0.0 | 1.7 | 0.00 | 0.21 | 0.00 | 54 | 988.0 |
| 20260831141947 | 67 | 238 | 0.0 | 0.9 | 0.00 | 0.21 | 0.00 | 54 | 987.9 |
| 20260831141446 | 67 | 196 | 0.0 | 1.7 | 0.00 | 0.21 | 0.00 | 48 | 987.9 |
| 20260831140948 | 66 | 196 | 0.0 | 1.7 | 0.00 | 0.21 | 0.00 | 50 | 987.9 |
| 20260831140446 | 66 | 207 | 0.0 | 0.0 | 0.00 | 0.21 | 0.00 | 50 | 987.9 |
| 20260831135946 | 65 | 223 | 0.0 | 1.7 | 0.00 | 0.21 | 0.00 | 51 | 987.8 |
| 20260831135450 | 65 | 228 | 0.9 | 3.5 | 0.00 | 0.21 | 0.00 | 51 | 987.8 |
| 20260831135446 | 65 | 227 | 0.9 | 3.5 | 0.00 | 0.21 | 0.00 | 52 | 987.8 |
| 20260831134448 | 64 | 183 | 1.7 | 3.5 | 0.00 | 0.21 | 0.00 | 54 | 987.8 |
| 20260831134444 | 65 | 205 | 0.9 | 3.5 | 0.00 | 0.21 | 0.00 | 53 | 987.8 |
| 20260831133448 | 62 | 173 | 0.0 | 1.7 | 0.00 | 0.21 | 0.00 | 58 | 987.6 |
| 20260831133444 | 63 | 188 | 0.9 | 3.5 | 0.00 | 0.21 | 0.00 | 57 | 987.7 |
| 20260831132445 | 62 | 194 | 0.0 | 1.7 | 0.00 | 0.21 | 0.00 | 58 | 987.4 |
| 20260831131944 | 62 | 206 | 0.0 | 1.7 | 0.00 | 0.21 | 0.00 | 57 | 987.3 |
| 20260831131444 | 61 | 208 | 0.0 | 0.9 | 0.00 | 0.21 | 0.00 | 57 | 987.3 |
| 20260831130945 | 61 | 238 | 0.0 | 0.0 | 0.00 | 0.21 | 0.00 | 60 | 987.3 |
| 20260831130444 | 62 | 178 | 0.0 | 0.0 | 0.00 | 0.21 | 0.00 | 57 | 987.1 |
| 20260831125944 | 62 | 191 | 0.0 | 2.6 | 0.00 | 0.21 | 0.00 | 55 | 987.1 |
| 20260831125442 | 62 | 191 | 0.0 | 2.6 | 0.00 | 0.21 | 0.00 | 55 | 987.0 |
| 20260831124941 | 62 | 217 | 0.9 | 4.3 | 0.00 | 0.21 | 0.00 | 55 | 986.9 |
| 20260831124443 | 62 | 218 | 0.9 | 4.3 | 0.00 | 0.21 | 0.00 | 55 | 986.9 |
| 20260831123943 | 63 | 204 | 0.9 | 5.2 | 0.00 | 0.21 | 0.00 | 54 | 986.9 |
| 20260831123442 | 63 | 215 | 1.7 | 5.2 | 0.00 | 0.21 | 0.00 | 54 | 986.9 |
| 20260831122942 | 63 | 195 | 1.7 | 4.3 | 0.00 | 0.21 | 0.00 | 54 | 986.9 |
| 20260831122441 | 63 | 197 | 1.7 | 4.3 | 0.00 | 0.21 | 0.00 | 53 | 986.7 |
| 20260831121944 | 64 | 226 | 2.6 | 5.2 | 0.00 | 0.21 | 0.00 | 53 | 986.7 |
| 20260831121441 | 64 | 227 | 3.5 | 7.0 | 0.00 | 0.21 | 0.00 | 53 | 986.7 |
| 20260831120941 | 64 | 181 | 3.5 | 7.0 | 0.00 | 0.21 | 0.00 | 53 | 986.7 |
| 20260831120438 | 63 | 208 | 2.6 | 5.2 | 0.00 | 0.21 | 0.00 | 53 | 986.6 |
| 20260831115938 | 63 | 197 | 1.7 | 5.2 | 0.00 | 0.21 | 0.00 | 54 | 986.6 |
| 20260831115438 | 63 | 152 | 1.7 | 5.2 | 0.00 | 0.21 | 0.00 | 54 | 986.6 |
| 20260831114938 | 63 | 216 | 0.9 | 2.6 | 0.00 | 0.21 | 0.00 | 54 | 986.6 |
| 20260831114436 | 63 | 193 | 0.9 | 2.6 | 0.00 | 0.21 | 0.00 | 55 | 986.6 |
| 20260831113935 | 63 | 182 | 0.9 | 2.6 | 0.00 | 0.21 | 0.00 | 56 | 986.5 |
| 20260831113434 | 62 | 167 | 0.9 | 4.3 | 0.00 | 0.21 | 0.00 | 56 | 986.5 |
| 20260831112934 | 63 | 205 | 1.7 | 4.3 | 0.00 | 0.21 | 0.00 | 56 | 986.5 |
| 20260831112433 | 62 | 203 | 1.7 | 4.3 | 0.00 | 0.21 | 0.00 | 57 | 986.5 |
| 20260831111932 | 62 | 212 | 1.7 | 4.3 | 0.00 | 0.21 | 0.00 | 57 | 986.5 |
| 20260831111432 | 62 | 207 | 1.7 | 3.5 | 0.00 | 0.21 | 0.00 | 58 | 986.5 |
| 20260831110931 | 61 | 221 | 1.7 | 3.5 | 0.00 | 0.21 | 0.00 | 59 | 986.5 |
| 20260831110429 | 61 | 211 | 1.7 | 3.5 | 0.00 | 0.21 | 0.00 | 61 | 986.4 |
| 20260831105934 | 60 | 192 | 0.9 | 2.6 | 0.00 | 0.21 | 0.00 | 63 | 986.5 |
| 20260831105929 | 60 | 218 | 1.7 | 2.6 | 0.00 | 0.21 | 0.00 | 62 | 986.5 |
| 20260831104932 | 60 | 205 | 0.9 | 1.7 | 0.00 | 0.21 | 0.00 | 64 | 986.4 |
| 20260831104928 | 60 | 203 | 0.0 | 1.7 | 0.00 | 0.21 | 0.00 | 64 | 986.4 |
| 20260831103931 | 60 | 231 | 0.0 | 0.0 | 0.00 | 0.21 | 0.00 | 64 | 986.4 |
| 20260831103927 | 60 | 205 | 0.0 | 1.7 | 0.00 | 0.21 | 0.00 | 64 | 986.4 |
| 20260831103532 | 60 | 193 | 0.0 | 1.7 | 0.00 | 0.21 | 0.00 | 65 | 986.3 |
| 20260831103032 | 60 | 231 | 0.0 | 0.0 | 0.00 | 0.21 | 0.00 | 64 | 986.4 |
| 20260831101924 | 60 | 188 | 0.0 | 1.7 | 0.00 | 0.21 | 0.00 | 64 | 986.4 |
| 20260831101424 | 60 | 211 | 0.0 | 1.7 | 0.00 | 0.21 | 0.00 | 65 | 986.4 |
| 20260831100928 | 59 | 205 | 0.0 | 0.9 | 0.00 | 0.21 | 0.00 | 68 | 986.4 |
| 20260831100924 | 59 | 210 | 0.0 | 0.9 | 0.00 | 0.21 | 0.00 | 66 | 986.3 |
| 20260831095924 | 59 | 222 | 0.0 | 0.0 | 0.00 | 0.21 | 0.00 | 68 | 986.4 |
| 20260831095428 | 59 | 216 | 0.0 | 0.0 | 0.00 | 0.21 | 0.00 | 67 | 986.3 |
| 20260831095424 | 59 | 216 | 0.0 | 0.0 | 0.00 | 0.21 | 0.00 | 67 | 986.3 |
| 20260831094424 | 59 | 215 | 0.0 | 0.0 | 0.00 | 0.21 | 0.00 | 67 | 986.1 |
| 20260831093922 | 59 | 207 | 0.0 | 0.0 | 0.00 | 0.21 | 0.00 | 67 | 986.0 |
| 20260831093426 | 60 | 195 | 0.9 | 2.6 | 0.00 | 0.21 | 0.00 | 67 | 986.0 |
| 20260831093422 | 60 | 193 | 0.0 | 0.9 | 0.00 | 0.21 | 0.00 | 68 | 986.0 |
| 20260831092422 | 60 | 158 | 0.9 | 2.6 | 0.00 | 0.21 | 0.00 | 67 | 986.0 |
| 20260831091922 | 60 | 207 | 0.0 | 1.7 | 0.00 | 0.21 | 0.00 | 68 | 986.1 |
| 20260831091422 | 59 | 196 | 0.0 | 0.9 | 0.00 | 0.21 | 0.00 | 68 | 986.3 |
| 20260831090922 | 58 | 243 | 0.0 | 0.9 | 0.00 | 0.21 | 0.00 | 72 | 986.3 |
| 20260831090426 | 58 | 101 | 0.0 | 0.0 | 0.00 | 0.21 | 0.00 | 72 | 986.4 |
| 20260831090422 | 58 | 101 | 0.0 | 0.0 | 0.00 | 0.21 | 0.00 | 72 | 986.4 |
| 20260831090027 | 58 | 102 | 0.0 | 0.0 | 0.00 | 0.21 | 0.00 | 73 | 986.4 |
| 20260831084922 | 57 | 100 | 0.0 | 0.0 | 0.00 | 0.21 | 0.00 | 74 | 986.1 |
| 20260831084422 | 57 | 97 | 0.0 | 0.0 | 0.00 | 0.21 | 0.00 | 74 | 986.0 |
| 20260831083921 | 57 | 97 | 0.0 | 0.0 | 0.00 | 0.21 | 0.00 | 74 | 986.0 |
| 20260831083421 | 58 | 97 | 0.0 | 0.0 | 0.00 | 0.21 | 0.00 | 74 | 986.0 |
| 20260831082925 | 58 | 97 | 0.0 | 0.0 | 0.00 | 0.21 | 0.00 | 74 | 986.4 |
| 20260831082921 | 58 | 97 | 0.0 | 0.0 | 0.00 | 0.21 | 0.00 | 73 | 986.3 |
| 20260831081919 | 59 | 97 | 0.0 | 0.0 | 0.00 | 0.21 | 0.00 | 73 | 986.4 |
| 20260831081423 | 61 | 97 | 0.0 | 0.0 | 0.00 | 0.21 | 0.00 | 67 | 986.5 |
| 20260831081419 | 60 | 97 | 0.0 | 0.0 | 0.00 | 0.21 | 0.00 | 70 | 986.4 |
| 20260831080420 | 62 | 97 | 0.0 | 1.7 | 0.00 | 0.21 | 0.00 | 64 | 986.4 |
| 20260831075917 | 62 | 97 | 0.9 | 2.6 | 0.00 | 0.21 | 0.00 | 62 | 986.4 |
| 20260831075417 | 62 | 226 | 2.6 | 5.2 | 0.00 | 0.21 | 0.00 | 62 | 986.5 |
| 20260831074921 | 61 | 182 | 1.7 | 5.2 | 0.00 | 0.21 | 0.00 | 64 | 986.5 |
| 20260831074917 | 62 | 220 | 2.6 | 5.2 | 0.00 | 0.21 | 0.00 | 63 | 986.4 |
| 20260831074523 | 61 | 212 | 0.9 | 2.6 | 0.00 | 0.21 | 0.00 | 65 | 986.6 |
| 20260831073922 | 62 | 231 | 2.6 | 7.0 | 0.00 | 0.21 | 0.00 | 63 | 986.5 |
| 20260831073418 | 62 | 203 | 0.9 | 3.5 | 0.00 | 0.21 | 0.00 | 64 | 986.5 |
| 20260831072417 | 62 | 224 | 3.5 | 7.0 | 0.00 | 0.21 | 0.00 | 63 | 986.6 |
| 20260831071918 | 62 | 219 | 4.3 | 7.0 | 0.00 | 0.21 | 0.00 | 63 | 986.6 |
| 20260831071416 | 62 | 212 | 4.3 | 7.8 | 0.00 | 0.21 | 0.00 | 64 | 986.6 |
| 20260831070915 | 62 | 226 | 3.5 | 7.8 | 0.00 | 0.21 | 0.00 | 63 | 986.6 |
| 20260831070415 | 62 | 228 | 3.5 | 7.0 | 0.00 | 0.21 | 0.00 | 65 | 986.6 |
| 20260831065921 | 62 | 203 | 3.5 | 7.8 | 0.00 | 0.21 | 0.00 | 66 | 986.7 |
| 20260831065916 | 62 | 196 | 4.3 | 7.8 | 0.00 | 0.21 | 0.00 | 65 | 986.6 |
| 20260831064912 | 62 | 193 | 2.6 | 6.1 | 0.00 | 0.21 | 0.00 | 67 | 987.0 |
| 20260831064415 | 62 | 214 | 3.5 | 7.8 | 0.00 | 0.21 | 0.00 | 67 | 987.2 |
| 20260831064411 | 62 | 211 | 3.5 | 7.8 | 0.00 | 0.21 | 0.00 | 67 | 987.0 |
| 20260831063412 | 62 | 203 | 3.5 | 6.1 | 0.00 | 0.21 | 0.00 | 69 | 987.2 |
| 20260831062911 | 61 | 222 | 2.6 | 6.1 | 0.00 | 0.21 | 0.00 | 72 | 987.2 |
| 20260831062410 | 59 | 252 | 2.6 | 7.0 | 0.00 | 0.21 | 0.00 | 83 | 987.2 |
| 20260831061911 | 58 | 210 | 2.6 | 7.0 | 0.00 | 0.21 | 0.00 | 92 | 987.3 |
| 20260831061410 | 57 | 201 | 2.6 | 6.1 | 0.00 | 0.21 | 0.00 | 92 | 987.3 |
| 20260831060910 | 57 | 199 | 2.6 | 5.2 | 0.00 | 0.21 | 0.00 | 93 | 987.4 |
| 20260831060409 | 57 | 203 | 3.5 | 8.7 | 0.00 | 0.21 | 0.00 | 92 | 987.6 |
| 20260831055910 | 57 | 145 | 3.5 | 8.7 | 0.00 | 0.21 | 0.21 | 93 | 987.7 |
| 20260831055408 | 57 | 197 | 2.6 | 5.2 | 0.00 | 0.21 | 0.21 | 93 | 987.8 |
| 20260831054908 | 57 | 198 | 1.7 | 5.2 | 0.00 | 0.21 | 0.21 | 92 | 987.9 |
| 20260831054408 | 57 | 174 | 1.7 | 4.3 | 0.00 | 0.21 | 0.21 | 93 | 987.8 |
| 20260831053908 | 57 | 193 | 0.9 | 4.3 | 0.01 | 0.21 | 0.21 | 93 | 987.9 |
| 20260831053408 | 57 | 224 | 0.9 | 3.5 | 0.01 | 0.21 | 0.21 | 92 | 987.9 |
| 20260831052908 | 57 | 245 | 1.7 | 4.3 | 0.02 | 0.21 | 0.21 | 92 | 987.8 |
| 20260831052410 | 57 | 217 | 0.9 | 4.3 | 0.03 | 0.21 | 0.21 | 93 | 987.6 |
| 20260831051908 | 57 | 180 | 0.0 | 4.3 | 0.04 | 0.21 | 0.21 | 93 | 987.4 |
| 20260831051408 | 56 | 172 | 0.9 | 4.3 | 0.05 | 0.21 | 0.21 | 93 | 987.3 |
| 20260831050913 | 57 | 188 | 1.7 | 5.2 | 0.05 | 0.21 | 0.21 | 92 | 987.4 |
| 20260831050909 | 57 | 207 | 1.7 | 4.3 | 0.05 | 0.21 | 0.21 | 93 | 987.3 |
| 20260831045908 | 57 | 208 | 1.7 | 5.2 | 0.05 | 0.21 | 0.21 | 92 | 987.3 |
| 20260831045408 | 57 | 191 | 1.7 | 6.1 | 0.05 | 0.21 | 0.21 | 92 | 987.4 |
| 20260831044912 | 57 | 131 | 5.2 | 9.6 | 0.05 | 0.21 | 0.21 | 91 | 987.4 |
| 20260831044908 | 57 | 217 | 3.5 | 9.6 | 0.05 | 0.21 | 0.21 | 92 | 987.2 |
| 20260831043909 | 57 | 162 | 4.3 | 8.7 | 0.04 | 0.20 | 0.21 | 91 | 987.8 |
| 20260831043409 | 58 | 213 | 4.3 | 7.8 | 0.04 | 0.20 | 0.20 | 90 | 988.3 |
| 20260831042910 | 58 | 199 | 5.2 | 11.3 | 0.03 | 0.19 | 0.19 | 89 | 988.3 |
| 20260831042409 | 59 | 195 | 3.5 | 11.3 | 0.02 | 0.18 | 0.18 | 87 | 988.4 |
| 20260831041908 | 61 | 206 | 1.7 | 9.6 | 0.01 | 0.17 | 0.17 | 82 | 988.5 |
| 20260831041642 | 65 | 244 | 2.6 | 7.0 | 0.00 | 0.16 | 0.16 | 59 | 987.9 |
| 20260831041636 | 65 | 68 | 1.7 | 6.1 | 0.00 | 0.16 | 0.17 | 62 | 988.5 |
| 20260831040411 | 63 | 205 | 0.0 | 0.0 | 0.00 | 0.16 | 0.16 | 73 | 987.3 |
| 20260831040406 | 64 | 189 | 1.7 | 7.0 | 0.00 | 0.16 | 0.16 | 62 | 987.8 |
| 20260831035906 | 62 | 206 | 0.0 | 4.3 | 0.00 | 0.16 | 0.16 | 75 | 987.8 |
| 20260831035512 | 64 | 205 | 0.0 | 0.0 | 0.00 | 0.16 | 0.16 | 71 | 987.3 |
| 20260831034410 | 64 | 206 | 0.0 | 1.7 | 0.00 | 0.16 | 0.16 | 68 | 987.1 |
| 20260831034406 | 63 | 205 | 0.0 | 0.0 | 0.00 | 0.16 | 0.16 | 67 | 987.1 |
| 20260831033406 | 64 | 205 | 0.0 | 1.7 | 0.00 | 0.16 | 0.16 | 68 | 987.1 |
| 20260831032910 | 64 | 205 | 0.9 | 2.6 | 0.00 | 0.16 | 0.16 | 66 | 987.1 |
| 20260831032906 | 64 | 171 | 0.0 | 2.6 | 0.00 | 0.16 | 0.16 | 67 | 987.1 |
| 20260831031905 | 64 | 193 | 0.0 | 2.6 | 0.00 | 0.16 | 0.16 | 67 | 987.1 |
| 20260831031406 | 64 | 315 | 0.9 | 6.1 | 0.00 | 0.16 | 0.16 | 67 | 987.1 |
| 20260831030906 | 65 | 233 | 0.9 | 6.1 | 0.00 | 0.16 | 0.16 | 67 | 987.1 |
| 20260831030406 | 64 | 354 | 0.9 | 4.3 | 0.00 | 0.16 | 0.16 | 65 | 986.7 |
| 20260831025906 | 63 | 278 | 0.0 | 2.6 | 0.00 | 0.16 | 0.16 | 69 | 987.3 |
| 20260831025405 | 63 | 182 | 0.0 | 0.9 | 0.00 | 0.16 | 0.16 | 71 | 987.4 |
| 20260831024906 | 63 | 288 | 0.0 | 0.0 | 0.00 | 0.16 | 0.16 | 74 | 987.3 |
| 20260831024405 | 63 | 211 | 0.0 | 0.0 | 0.00 | 0.16 | 0.16 | 72 | 987.2 |
| 20260831023906 | 64 | 211 | 0.0 | 0.0 | 0.00 | 0.16 | 0.16 | 72 | 987.1 |
| 20260831023409 | 63 | 238 | 0.0 | 3.5 | 0.00 | 0.16 | 0.16 | 66 | 986.7 |
| 20260831023405 | 64 | 238 | 0.0 | 3.5 | 0.00 | 0.16 | 0.16 | 66 | 986.9 |
| 20260831022408 | 62 | 205 | 0.0 | 1.7 | 0.00 | 0.16 | 0.16 | 73 | 986.5 |
| 20260831022404 | 62 | 210 | 0.0 | 3.5 | 0.00 | 0.16 | 0.16 | 71 | 986.7 |
| 20260831021403 | 61 | 196 | 0.0 | 0.0 | 0.00 | 0.16 | 0.16 | 75 | 986.3 |
| 20260831020907 | 62 | 195 | 0.0 | 0.0 | 0.00 | 0.16 | 0.16 | 75 | 986.0 |
| 20260831020904 | 61 | 196 | 0.0 | 0.0 | 0.00 | 0.16 | 0.16 | 75 | 986.3 |
| 20260831020509 | 62 | 196 | 0.0 | 0.0 | 0.00 | 0.16 | 0.16 | 76 | 985.8 |
| 20260831015903 | 62 | 196 | 0.0 | 0.0 | 0.00 | 0.16 | 0.16 | 74 | 985.8 |
| 20260831014904 | 62 | 196 | 0.0 | 0.0 | 0.00 | 0.16 | 0.16 | 75 | 985.9 |
| 20260831014404 | 62 | 196 | 0.0 | 1.7 | 0.00 | 0.16 | 0.16 | 75 | 985.9 |
| 20260831013903 | 62 | 196 | 0.9 | 3.5 | 0.00 | 0.16 | 0.16 | 75 | 985.8 |
| 20260831013404 | 62 | 203 | 0.9 | 3.5 | 0.00 | 0.16 | 0.16 | 76 | 985.8 |
| 20260831012904 | 62 | 195 | 0.9 | 3.5 | 0.00 | 0.16 | 0.16 | 76 | 985.8 |
| 20260831012404 | 62 | 159 | 0.9 | 2.6 | 0.00 | 0.16 | 0.16 | 76 | 985.8 |
| 20260831011908 | 62 | 165 | 0.9 | 2.6 | 0.00 | 0.16 | 0.16 | 77 | 985.8 |
| 20260831011904 | 62 | 181 | 0.9 | 2.6 | 0.00 | 0.16 | 0.16 | 77 | 985.8 |
| 20260831010903 | 62 | 187 | 0.9 | 2.6 | 0.00 | 0.16 | 0.16 | 77 | 985.8 |
| 20260831010403 | 62 | 169 | 0.9 | 4.3 | 0.00 | 0.16 | 0.16 | 78 | 985.8 |
| 20260831005904 | 62 | 179 | 1.7 | 4.3 | 0.00 | 0.16 | 0.16 | 79 | 985.9 |
| 20260831005407 | 62 | 174 | 0.9 | 3.5 | 0.00 | 0.16 | 0.16 | 79 | 986.3 |
| 20260831005403 | 62 | 168 | 0.9 | 4.3 | 0.00 | 0.16 | 0.16 | 80 | 986.1 |
| 20260831004403 | 62 | 156 | 0.9 | 3.5 | 0.00 | 0.16 | 0.16 | 80 | 986.1 |
| 20260831003903 | 63 | 183 | 0.9 | 3.5 | 0.00 | 0.16 | 0.16 | 80 | 986.0 |
| 20260831003403 | 63 | 194 | 0.9 | 2.6 | 0.00 | 0.16 | 0.16 | 81 | 986.3 |
| 20260831002903 | 62 | 176 | 0.0 | 1.7 | 0.00 | 0.16 | 0.16 | 81 | 986.3 |
| 20260831002403 | 62 | 218 | 0.0 | 1.7 | 0.00 | 0.16 | 0.16 | 80 | 986.3 |
| 20260831001901 | 62 | 200 | 0.9 | 3.5 | 0.00 | 0.16 | 0.16 | 82 | 986.4 |
| 20260831001401 | 62 | 153 | 0.9 | 3.5 | 0.00 | 0.16 | 0.16 | 81 | 986.5 |
| 20260831000902 | 62 | 155 | 0.0 | 0.9 | 0.00 | 0.16 | 0.16 | 81 | 986.6 |
| 20260831000858 | 62 | 187 | 0.0 | 1.7 | 0.00 | 0.16 | 0.16 | 80 | 986.5 |
| 20260830235855 | 62 | 123 | 0.0 | 1.7 | 0.00 | 0.16 | 0.16 | 84 | 986.6 |
| 20260830235355 | 62 | 128 | 0.0 | 1.7 | 0.00 | 0.16 | 0.16 | 83 | 986.5 |
| 20260830234855 | 62 | 202 | 0.0 | 1.7 | 0.00 | 0.16 | 0.16 | 82 | 986.6 |
| 20260830234355 | 62 | 32 | 0.0 | 0.0 | 0.00 | 0.16 | 0.16 | 82 | 986.5 |
| 20260830233859 | 62 | 32 | 0.0 | 1.7 | 0.02 | 0.16 | 0.16 | 83 | 987.1 |
| 20260830233855 | 62 | 32 | 0.0 | 0.0 | 0.01 | 0.16 | 0.16 | 83 | 986.9 |
| 20260830232856 | 62 | 172 | 0.9 | 4.3 | 0.07 | 0.16 | 0.16 | 83 | 987.2 |
| 20260830232354 | 62 | 171 | 0.9 | 4.3 | 0.11 | 0.16 | 0.16 | 83 | 987.3 |
| 20260830231853 | 62 | 178 | 0.9 | 4.3 | 0.11 | 0.16 | 0.16 | 83 | 987.1 |
| 20260830231353 | 62 | 191 | 0.0 | 2.6 | 0.11 | 0.16 | 0.16 | 81 | 986.6 |
| 20260830230857 | 61 | 330 | 0.0 | 0.9 | 0.12 | 0.16 | 0.16 | 79 | 986.5 |
| 20260830230853 | 62 | 307 | 0.0 | 0.0 | 0.11 | 0.16 | 0.16 | 78 | 986.5 |
| 20260830225854 | 61 | 345 | 0.0 | 0.9 | 0.12 | 0.16 | 0.16 | 81 | 986.6 |
| 20260830225344 | 61 | 345 | 0.0 | 1.7 | 0.14 | 0.16 | 0.16 | 83 | 986.5 |
| 20260830224843 | 61 | 350 | 0.0 | 1.7 | 0.14 | 0.16 | 0.16 | 81 | 986.7 |
| 20260830224341 | 61 | 336 | 0.0 | 1.7 | 0.16 | 0.16 | 0.16 | 80 | 987.0 |
| 20260830223843 | 61 | 323 | 0.0 | 0.9 | 0.15 | 0.15 | 0.15 | 80 | 987.3 |
| 20260830223342 | 61 | 283 | 0.9 | 3.5 | 0.14 | 0.14 | 0.14 | 79 | 987.4 |
| 20260830222841 | 62 | 235 | 0.9 | 5.2 | 0.09 | 0.09 | 0.10 | 78 | 987.6 |